• Join FlightAware (Why Join?)
  • Login
  • US Flag 
12:29PM EST


 

Airport Tracker/Info


-or-


 

Live Flight TrackerFlight Track Log ✈ N100PU ✈ 12-Jul-2014 ✈ KRDU - KLAF

Flight Track Log - Related Links

Times and Time Zones

All times are in EDT time to prevent confusion due to time zone crossing. See the N100PU flight status page for this flight to view local times or setup timezone preferences in your user account.

Time Position Orientation Groundspeed Altitude Reporting Facility
EDT Latitude Longitude Course Direction KTS MPH feet Rate Location/Type
07:44PM 35.8539 -78.8133 264° West 151 174 1,400  Level Washington Center
07:45PM 35.8325 -78.8381 223° Southwest 162 186 3,000 2,172 Climbing Washington Center
07:45PM 35.8236 -78.8556 238° Southwest 205 236 3,500 1,778 Climbing Washington Center
07:46PM 35.8342 -78.9303 280° West 232 267 5,400 2,083 Climbing Washington Center
07:47PM 35.8467 -79.0053 282° West 232 267 7,700 2,115 Climbing Washington Center
07:48PM 35.8506 -79.0822 274° West 227 261 9,700 1,966 Climbing Washington Center
07:49PM 35.8464 -79.1539 266° West 227 261 11,600 1,866 Climbing Washington Center
07:50PM 35.8259 -79.3486 264° West  Level FlightAware Approximate
07:50PM 35.8417 -79.2433 266° West 235 270 13,400  Level Washington Center
07:51PM 35.8350 -79.3225 264° West 251 289 15,000 1,554 Climbing Washington Center
07:53PM 35.8150 -79.5317 263° West 255 293 18,400 1,406 Climbing Atlanta Center
07:54PM 35.8092 -79.6039 264° West 260 299 19,500 1,350 Climbing Atlanta Center
07:55PM 35.7939 -79.6992 259° West 260 299 21,100 1,450 Climbing Atlanta Center
07:56PM 35.7783 -79.7950 259° West 271 312 22,400 1,200 Climbing Atlanta Center
07:57PM 35.7608 -79.8881 257° West 283 326 23,500 1,050 Climbing Atlanta Center
07:58PM 35.7411 -79.9886 256° West 289 333 24,500 1,000 Climbing Atlanta Center
07:59PM 35.7236 -80.0919 258° West 300 345 25,500 950 Climbing Atlanta Center
08:00PM 35.7039 -80.1950 257° West 306 352 26,400 800 Climbing Atlanta Center
08:01PM 35.6844 -80.3033 258° West 306 352 27,100 700 Climbing Atlanta Center
08:02PM 35.6647 -80.4117 257° West 324 373 27,800 450 Climbing Atlanta Center
08:03PM 35.6722 -80.5239 275° West 329 379 28,000 100 Climbing Atlanta Center
08:04PM 35.7231 -80.6264 301° West 329 379 28,000 100 Level Atlanta Center
08:05PM 35.7758 -80.7292 302° West 346 398 28,200 850 Climbing Atlanta Center
08:06PM 35.8311 -80.8447 301° West 352 405 29,700 1,050 Climbing Atlanta Center
08:07PM 35.8794 -80.9403 302° West 342 394 30,300 650 Climbing Atlanta Center
08:08PM 35.9278 -81.0411 301° West 342 394 31,000 1,300 Climbing Atlanta Center
08:09PM 35.9739 -81.1367 301° West 336 387 32,900 1,600 Climbing Atlanta Center
08:10PM 36.0133 -81.2228 300° West 319 367 34,200 900 Climbing Atlanta Center
08:11PM 36.0550 -81.3111 300° West 300 345 34,700 550 Climbing Atlanta Center
08:12PM 36.0986 -81.3994 301° West 300 345 35,300 550 Climbing Atlanta Center
08:13PM 36.1403 -81.4908 299° West 306 352 35,800 350 Climbing Atlanta Center
08:14PM 36.1881 -81.5869 302° West 306 352 36,000 200 Climbing Atlanta Center
08:15PM 36.2503 -81.6728 312° West 317 365 36,200 450 Climbing Atlanta Center
08:16PM 36.3164 -81.7506 317° Northwest 327 376 36,900 400 Climbing Atlanta Center
08:17PM 36.3844 -81.8261 318° Northwest 327 376 37,000 50 Climbing Atlanta Center
08:18PM 36.4486 -81.9069 315° West 327 376 37,000  Level Atlanta Center
08:19PM 36.5186 -81.9850 318° Northwest 327 376 37,000  Level Atlanta Center
08:20PM 36.5867 -82.0661 316° Northwest 332 382 37,000 457 Level Atlanta Center
08:21PM 36.6350 -82.1231 317° Northwest 342 394 37,800 561 Climbing Indianapolis Center
08:22PM 36.6997 -82.2000 316° Northwest 327 376 38,000 98 Climbing Indianapolis Center
08:23PM 36.7644 -82.2764 317° Northwest 324 373 38,000  Level Indianapolis Center
08:24PM 36.8297 -82.3544 316° Northwest 324 373 38,000  Level Indianapolis Center
08:25PM 36.8953 -82.4314 317° Northwest 324 373 38,000  Level Indianapolis Center
08:26PM 36.9708 -82.5214 316° Northwest 324 373 38,000  Level Indianapolis Center
08:27PM 37.0342 -82.5969 316° Northwest 323 372 38,000  Level Indianapolis Center
08:28PM 37.0969 -82.6708 317° Northwest 317 365 38,000  Level Indianapolis Center
08:29PM 37.1583 -82.7464 316° Northwest 315 362 38,000  Level Indianapolis Center
08:30PM 37.2203 -82.8206 316° Northwest 312 359 38,000  Level Indianapolis Center
08:31PM 37.2828 -82.8961 316° Northwest 312 359 38,000  Level Indianapolis Center
08:32PM 37.3456 -82.9733 316° Northwest 312 359 38,000  Level Indianapolis Center
08:33PM 37.4075 -83.0492 316° Northwest 312 359 38,000  Level Indianapolis Center
08:34PM 37.4814 -83.1375 317° Northwest 312 359 38,000  Level Indianapolis Center
08:35PM 37.5456 -83.2164 316° Northwest 317 365 38,000  Level Indianapolis Center
08:36PM 37.6106 -83.2975 315° West 323 372 38,000  Level Indianapolis Center
08:37PM 37.6786 -83.3797 316° Northwest 333 383 38,000  Level Indianapolis Center
08:38PM 37.7447 -83.4622 315° West 335 386 38,000  Level Indianapolis Center
08:39PM 37.8122 -83.5453 316° Northwest 335 386 38,000  Level Indianapolis Center
08:40PM 37.8797 -83.6269 316° Northwest 335 386 38,000  Level Indianapolis Center
08:41PM 37.9456 -83.7094 315° West 335 386 38,000  Level Indianapolis Center
08:42PM 38.0128 -83.7900 317° Northwest 335 386 38,000  Level Indianapolis Center
08:43PM 38.0786 -83.8728 315° West 335 386 38,000  Level Indianapolis Center
08:44PM 38.1444 -83.9561 315° West 334 384 38,000  Level Indianapolis Center
08:45PM 38.2217 -84.0536 315° West 334 384 38,000  Level Indianapolis Center
08:46PM 38.2881 -84.1361 316° Northwest 334 384 38,000  Level Indianapolis Center
08:47PM 38.3536 -84.2208 315° West 334 384 38,000 -443 Level Indianapolis Center
08:49PM 38.4192 -84.3014 316° Northwest 333 383 37,100 -1,033 Descending Indianapolis Center
08:50PM 38.4842 -84.3850 315° West 333 383 35,900 -1,525 Descending Indianapolis Center
08:51PM 38.5506 -84.4694 315° West 333 383 34,000 -1,869 Descending Indianapolis Center
08:52PM 38.6200 -84.5567 316° Northwest 344 396 32,100 -976 Descending Indianapolis Center
08:53PM 38.6892 -84.6528 313° West 354 407 32,000 -49 Descending Indianapolis Center
08:54PM 38.7572 -84.7381 316° Northwest 347 399 32,000  Level Indianapolis Center
08:55PM 38.8244 -84.8242 315° West 344 396 32,000 -344 Level Indianapolis Center
08:56PM 38.8917 -84.9064 316° Northwest 339 390 31,300 -1,131 Descending Indianapolis Center
08:57PM 38.9581 -84.9919 315° West 339 390 29,700 -1,131 Descending Indianapolis Center
08:58PM 39.0225 -85.0775 314° West 337 388 29,000 -787 Descending Indianapolis Center
08:59PM 39.0869 -85.1592 315° West 331 381 28,100 -1,033 Descending Indianapolis Center
09:00PM 39.1481 -85.2403 314° West 322 371 26,900 -1,180 Descending Indianapolis Center
09:01PM 39.2206 -85.3342 315° West 313 360 25,700 -1,131 Descending Indianapolis Center
09:02PM 39.2778 -85.4094 314° West 302 348 24,600 -836 Descending Indianapolis Center
09:03PM 39.3353 -85.4853 314° West 298 343 24,000 -885 Descending Indianapolis Center
09:04PM 39.3933 -85.5611 315° West 298 343 22,800 -1,082 Descending Indianapolis Center
09:05PM 39.4500 -85.6381 314° West 298 343 21,800 -885 Descending Indianapolis Center
09:06PM 39.5086 -85.7144 315° West 298 343 21,000 -787 Descending Indianapolis Center
09:07PM 39.5650 -85.7900 314° West 297 342 20,200 -787 Descending Indianapolis Center
09:08PM 39.6197 -85.8633 314° West 289 333 19,400 -1,180 Descending Indianapolis Center
09:09PM 39.6742 -85.9344 315° West 285 328 17,800 -1,574 Descending Indianapolis Center
09:10PM 39.7275 -86.0061 314° West 280 322 16,200 -1,770 Descending Indianapolis Center
09:11PM 39.7903 -86.0903 314° West 277 319 14,200 -1,820 Descending Indianapolis Center
09:12PM 39.8403 -86.1569 314° West 266 306 12,500 -1,672 Descending Indianapolis Center
09:13PM 39.8883 -86.2228 314° West 260 299 10,800 -1,230 Descending Indianapolis Center
09:14PM 39.9364 -86.2878 314° West 256 295 10,000 -393 Descending Indianapolis Center
09:15PM 39.9875 -86.3556 315° West 258 297 10,000  Level Indianapolis Center
09:16PM 40.0428 -86.4111 322° Northwest 257 296 10,000  Level Indianapolis Center
09:17PM 40.1014 -86.4586 328° Northwest 254 292 10,000 -148 Level Indianapolis Center
09:18PM 40.1592 -86.5058 328° Northwest 249 287 9,700 -1,180 Descending Indianapolis Center
09:19PM 40.2244 -86.5594 328° Northwest 237 273 7,600 -1,770 Descending Indianapolis Center
09:20PM 40.2753 -86.6006 328° Northwest 224 258 6,100 -1,426 Descending Indianapolis Center
09:21PM 40.3219 -86.6397 327° Northwest 212 244 4,700 -1,377 Descending Indianapolis Center
09:22PM 40.3681 -86.6775 328° Northwest 203 234 3,300 -829 Descending Indianapolis Center
09:23PM 40.3867 -86.7297 295° West 172 198 3,000 -290 Descending Indianapolis Center